Location: ??????
(30.5519°N, 47.7720°E)
Time: 08:36:05
(UTC+00:00)

Cosmos 1655 Rocket - Visible Passes

Search period start: 09 May 2021 00:00
Search period end: 19 May 2021 00:00
Orbit: 970 x 1007 km, 82.9° (Epoch: 08 May)

Date Brightness Start Highest point End Pass type
(mag) Time Alt. Az. Time Alt. Az. Time Alt. Az.
09 May 6.1 16:44:13 10° NNW 16:49:14 26° W 16:54:14 10° SW visible
10 May 6.9 17:16:12 10° WNW 17:18:01 11° W 17:19:50 10° W visible
11 May 4.9 15:56:20 10° NNW 16:02:20 53° W 16:08:21 10° SSW visible
12 May 6.3 16:26:25 10° NW 16:31:18 25° W 16:36:12 10° SW visible
13 May 7.1 16:58:57 10° WNW 17:00:06 11° W 17:01:14 10° W visible
15 May 6.5 16:08:39 10° NW 16:13:24 23° W 16:18:10 10° SW visible
